Helena, MT

7:05 AM MST on November 22, 2017 (GMT -0700)
Helena Regional

Weather History for KHLN - November, 2014

Change the Weather History Date:

Monday, November 24, 2014

  Actual Average Record
Temperature  
Mean Temperature 37 °F 28 °F  
Max Temperature 42 °F 38 °F 63 °F (1986)
Min Temperature 31 °F 19 °F -17 °F (1880)
Degree Days  
Heating Degree Days 28 37  
Month to date heating degree days 848 747  
Since 1 July heating degree days 1472 1655  
Cooling Degree Days 0 0  
Month to date cooling degree days 0 0  
Year to date cooling degree days 469 406  
Moisture  
Dew Point 19 °F    
Average Humidity 49    
Maximum Humidity 64    
Minimum Humidity 34    
Precipitation  
Precipitation 0.00 in 0.02 in 1.23 in (1892)
Month to date precipitation 0.28 0.39  
Year to date precipitation 10.64 10.72  
Snow  
Snow 0.00 in 0.20 in 6.00 in (1897)
Month to date snowfall 0.7 3.5  
Since 1 July snowfall 0.7 7.5  
Since 1 September snowfall 0.7 7.2  
Snow Depth 0.00 in    
Sea Level Pressure  
Sea Level Pressure 30.21 in    
Wind  
Wind Speed 14 mph (West)    
Max Wind Speed 28 mph    
Max Gust Speed 37 mph    
Visibility 10 miles    
Events      
T = Trace of Precipitation, MM = Missing Value Source: NWS Daily Summary

Daily Weather History Graph

Daily Weather History Graph

Search for Another Location

Airport or City:

Trip Planner

Search our weather history database for the weather conditions in past years. The results will help you decide how hot, cold, wet, or windy it might be!

Date:

Astronomy

Nov. 24, 2014 Rise Set
Actual Time 7:42 AM MST 4:46 PM MST
Civil Twilight 7:08 AM MST 5:19 PM MST
Nautical Twilight 6:31 AM MST 5:57 PM MST
Astronomical Twilight 5:55 AM MST 6:33 PM MST
Moon 9:37 AM MST (11/24) 7:12 PM MST (11/24)
Length of Visible Light 10h 10m
Length of Day
9h 03m
Waxing Crescent, 6% of the Moon is Illuminated
Nov 24
Waxing Crescent
Nov 29
First Quarter
Dec 6
Full
Dec 14
Last Quarter
Dec 21
New

Hourly Weather History & Observations

Time (MST) Temp. Windchill Dew Point Humidity Pressure Visibility Wind Dir Wind Speed Gust Speed Precip Events Conditions
12:53 AM 36.0 °F 27.5 °F 24.1 °F 62% 30.01 in 10.0 mi West 12.7 mph - N/A   Overcast
1:53 AM 36.0 °F 26.7 °F 21.0 °F 55% 30.05 in 10.0 mi West 15.0 mph 28.8 mph N/A   Partly Cloudy
2:53 AM 35.1 °F 24.5 °F 21.9 °F 59% 30.09 in 10.0 mi West 18.4 mph - N/A   Clear
3:53 AM 35.1 °F 24.5 °F 21.9 °F 59% 30.12 in 10.0 mi West 18.4 mph 23.0 mph N/A   Partly Cloudy
4:53 AM 35.1 °F 25.9 °F 21.0 °F 57% 30.15 in 10.0 mi West 13.8 mph 20.7 mph N/A   Scattered Clouds
5:53 AM 32.0 °F 28.7 °F 19.9 °F 61% 30.18 in 10.0 mi Variable 3.5 mph - N/A   Partly Cloudy
6:53 AM 34.0 °F 24.2 °F 19.9 °F 56% 30.21 in 10.0 mi West 15.0 mph 20.7 mph N/A   Scattered Clouds
7:53 AM 33.1 °F 24.9 °F 19.9 °F 59% 30.25 in 10.0 mi West 10.4 mph - N/A   Clear
8:53 AM 34.0 °F 23.4 °F 19.9 °F 56% 30.27 in 10.0 mi West 17.3 mph 23.0 mph N/A   Partly Cloudy
9:53 AM 37.9 °F 27.3 °F 19.0 °F 47% 30.29 in 10.0 mi West 21.9 mph 28.8 mph N/A   Clear
10:53 AM 39.2 °F 28.7 °F 19.4 °F 45% 30.19 in 10.0 mi West 23.0 mph 27.6 mph N/A   Clear
11:53 AM 39.0 °F 29.3 °F 18.0 °F 43% 30.31 in 10.0 mi West 19.6 mph 25.3 mph N/A   Scattered Clouds
12:53 PM 39.2 °F 28.3 °F 15.8 °F 39% 30.19 in 10.0 mi West 25.3 mph 34.5 mph N/A   Clear
1:53 PM 41.0 °F 31.4 °F 16.0 °F 36% 30.29 in 10.0 mi West 21.9 mph 34.5 mph N/A   Clear
2:53 PM 39.9 °F 32.9 °F 15.1 °F 36% 30.30 in 10.0 mi West 11.5 mph 20.7 mph N/A   Clear
3:53 PM 39.0 °F 31.4 °F 15.1 °F 38% 30.29 in 10.0 mi WNW 12.7 mph - N/A   Clear
4:53 PM 39.0 °F 31.0 °F 16.0 °F 39% 30.30 in 10.0 mi WSW 13.8 mph 19.6 mph N/A   Mostly Cloudy
5:53 PM 37.9 °F 29.6 °F 16.0 °F 41% 30.32 in 10.0 mi WSW 13.8 mph 21.9 mph N/A   Clear
6:53 PM 37.9 °F 34.4 °F 15.1 °F 39% 30.27 in 10.0 mi WSW 4.6 mph - N/A   Mostly Cloudy
7:53 PM 37.9 °F 30.9 °F 17.1 °F 43% 30.26 in 10.0 mi WSW 10.4 mph 16.1 mph N/A   Partly Cloudy
8:53 PM 37.0 °F 34.5 °F 18.0 °F 46% 30.22 in 10.0 mi NW 3.5 mph - N/A   Partly Cloudy
9:53 PM 34.0 °F 28.8 °F 17.1 °F 50% 30.18 in 10.0 mi ESE 5.8 mph - N/A   Clear
10:53 PM 37.0 °F 32.4 °F 19.0 °F 48% 30.11 in 10.0 mi South 5.8 mph - N/A   Clear
11:53 PM 33.1 °F 27.7 °F 19.0 °F 56% 30.06 in 10.0 mi SSW 5.8 mph - N/A   Partly Cloudy